Time,TemperatureF,DewpointF,PressureIn,WindDirection,WindDirectionDegrees,WindSpeedMPH,WindSpeedGustMPH,Humidity,HourlyPrecipIn,Conditions,Clouds,dailyrainin,SoftwareType,DateUTC
2013-04-17 00:02:00,28.0,26.0,30.09,WNW,288,3.0,7.0,93,0.00,,,0.27,,2013-04-17 06:02:00,
2013-04-17 00:12:00,28.0,26.0,30.09,WNW,288,3.0,7.0,93,0.00,,,0.27,,2013-04-17 06:12:00,
2013-04-17 00:22:00,28.0,26.0,30.09,NW,309,4.0,9.0,93,0.00,,,0.27,,2013-04-17 06:22:00,
2013-04-17 00:32:00,28.0,26.0,30.09,NW,309,3.0,9.0,93,0.00,,,0.27,,2013-04-17 06:32:00,
2013-04-17 00:42:00,28.0,26.0,30.09,NW,309,3.0,9.0,93,0.00,,,0.27,,2013-04-17 06:42:00,
2013-04-17 00:52:00,28.0,26.0,30.09,West,273,1.0,5.0,93,0.00,,,0.27,,2013-04-17 06:52:00,
2013-04-17 01:02:00,28.0,27.0,30.09,West,267,2.0,6.0,94,0.00,,,0.27,,2013-04-17 07:02:00,
2013-04-17 01:12:00,28.0,27.0,30.09,West,267,2.0,6.0,94,0.00,,,0.27,,2013-04-17 07:12:00,
2013-04-17 01:22:00,28.0,27.0,30.09,NW,321,1.0,4.0,94,0.00,,,0.27,,2013-04-17 07:22:00,
2013-04-17 01:32:00,28.0,27.0,30.09,NW,317,0.0,4.0,94,0.00,,,0.27,,2013-04-17 07:32:00,
2013-04-17 01:42:00,28.0,27.0,30.09,NW,317,0.0,4.0,94,0.00,,,0.27,,2013-04-17 07:42:00,
2013-04-17 01:52:00,28.0,27.0,30.08,NW,321,1.0,5.0,94,0.00,,,0.27,,2013-04-17 07:52:00,
2013-04-17 02:02:00,28.0,27.0,30.08,West,276,0.0,4.0,94,0.00,,,0.27,,2013-04-17 08:02:00,
2013-04-17 02:12:00,28.0,27.0,30.08,West,276,0.0,4.0,94,0.00,,,0.27,,2013-04-17 08:12:00,
2013-04-17 02:22:00,28.0,27.0,30.07,West,272,1.0,6.0,94,0.00,,,0.27,,2013-04-17 08:22:00,
2013-04-17 02:32:00,28.0,27.0,30.07,West,275,2.0,6.0,94,0.00,,,0.27,,2013-04-17 08:32:00,
2013-04-17 02:42:00,28.0,27.0,30.07,West,275,2.0,6.0,94,0.00,,,0.27,,2013-04-17 08:42:00,
2013-04-17 02:52:00,28.0,27.0,30.06,WNW,295,1.0,6.0,94,0.00,,,0.27,,2013-04-17 08:52:00,
2013-04-17 03:02:00,28.0,27.0,30.06,NNW,338,0.0,4.0,94,0.00,,,0.27,,2013-04-17 09:02:00,
2013-04-17 03:12:00,28.0,27.0,30.06,NNW,338,0.0,4.0,94,0.00,,,0.27,,2013-04-17 09:12:00,
2013-04-17 03:22:00,29.0,27.0,30.06,West,259,0.0,6.0,94,0.00,,,0.27,,2013-04-17 09:22:00,
2013-04-17 03:33:00,29.0,27.0,30.05,West,265,1.0,5.0,94,0.00,,,0.27,,2013-04-17 09:33:00,
2013-04-17 03:42:00,29.0,27.0,30.05,West,265,1.0,5.0,94,0.00,,,0.27,,2013-04-17 09:42:00,
2013-04-17 03:52:00,29.0,27.0,30.05,West,265,2.0,4.0,93,0.00,,,0.27,,2013-04-17 09:52:00,
2013-04-17 04:02:00,29.0,27.0,30.05,West,267,1.0,5.0,93,0.00,,,0.27,,2013-04-17 10:02:00,
2013-04-17 04:12:00,29.0,27.0,30.05,West,267,1.0,5.0,93,0.00,,,0.27,,2013-04-17 10:12:00,
2013-04-17 04:23:00,28.0,26.0,30.04,West,272,0.0,6.0,93,0.00,,,0.27,,2013-04-17 10:23:00,
2013-04-17 04:32:00,28.0,26.0,30.04,West,265,1.0,5.0,93,0.00,,,0.27,,2013-04-17 10:32:00,
2013-04-17 04:42:00,28.0,26.0,30.04,West,265,1.0,5.0,93,0.00,,,0.27,,2013-04-17 10:42:00,
2013-04-17 04:52:00,28.0,27.0,30.04,West,273,0.0,6.0,94,0.00,,,0.27,,2013-04-17 10:52:00,
2013-04-17 05:02:00,29.0,27.0,30.03,West,265,0.0,3.0,94,0.00,,,0.27,,2013-04-17 11:02:00,
2013-04-17 05:12:00,29.0,27.0,30.03,West,265,0.0,3.0,94,0.00,,,0.27,,2013-04-17 11:12:00,
2013-04-17 05:22:00,29.0,27.0,30.03,West,279,1.0,4.0,94,0.00,,,0.27,,2013-04-17 11:22:00,
2013-04-17 05:32:00,29.0,27.0,30.03,West,279,0.0,2.0,94,0.00,,,0.27,,2013-04-17 11:32:00,
2013-04-17 05:42:00,29.0,27.0,30.03,West,279,0.0,2.0,94,0.00,,,0.27,,2013-04-17 11:42:00,
2013-04-17 05:52:00,29.0,28.0,30.02,West,279,0.0,1.0,95,0.00,,,0.27,,2013-04-17 11:52:00,
2013-04-17 06:02:00,29.0,28.0,30.02,West,278,0.0,3.0,95,0.00,,,0.27,,2013-04-17 12:02:00,
2013-04-17 06:12:00,29.0,28.0,30.02,West,278,0.0,3.0,95,0.00,,,0.27,,2013-04-17 12:12:00,
2013-04-17 06:22:00,29.0,28.0,30.02,West,271,0.0,3.0,95,0.00,,,0.27,,2013-04-17 12:22:00,
2013-04-17 06:32:00,29.0,28.0,30.02,SE,128,0.0,0.0,95,0.00,,,0.27,,2013-04-17 12:32:00,
2013-04-17 06:42:00,29.0,28.0,30.02,SE,128,0.0,0.0,95,0.00,,,0.27,,2013-04-17 12:42:00,
2013-04-17 06:52:00,29.0,28.0,30.02,ESE,102,1.0,4.0,95,0.00,,,0.27,,2013-04-17 12:52:00,
2013-04-17 07:02:00,29.0,27.0,30.03,ESE,106,2.0,10.0,94,0.00,,,0.27,,2013-04-17 13:02:00,
2013-04-17 07:12:00,29.0,27.0,30.03,ESE,106,2.0,10.0,94,0.00,,,0.27,,2013-04-17 13:12:00,
2013-04-17 07:22:00,29.0,27.0,30.03,SE,128,1.0,5.0,93,0.00,,,0.27,,2013-04-17 13:22:00,
2013-04-17 07:32:00,29.0,27.0,30.04,NE,49,1.0,5.0,93,0.00,,,0.27,,2013-04-17 13:32:00,
2013-04-17 07:42:00,29.0,27.0,30.04,NE,49,1.0,5.0,93,0.00,,,0.27,,2013-04-17 13:42:00,
2013-04-17 07:52:00,29.0,27.0,30.04,East,90,1.0,6.0,94,0.00,,,0.27,,2013-04-17 13:52:00,
2013-04-17 08:02:00,29.0,27.0,30.03,NE,42,2.0,6.0,94,0.00,,,0.27,,2013-04-17 14:02:00,
2013-04-17 08:12:00,29.0,27.0,30.03,NE,42,2.0,6.0,94,0.00,,,0.27,,2013-04-17 14:12:00,
2013-04-17 08:22:00,29.0,27.0,30.04,NNE,33,1.0,6.0,94,0.00,,,0.27,,2013-04-17 14:22:00,
2013-04-17 08:32:00,28.0,27.0,30.04,North,355,5.0,9.0,94,0.00,,,0.27,,2013-04-17 14:32:00,
2013-04-17 08:42:00,28.0,27.0,30.04,North,355,5.0,9.0,94,0.00,,,0.27,,2013-04-17 14:42:00,
2013-04-17 08:52:00,28.0,27.0,30.04,North,355,5.0,9.0,94,0.00,,,0.27,,2013-04-17 14:52:00,
2013-04-17 09:02:00,28.0,27.0,30.04,NNE,22,4.0,9.0,94,0.00,,,0.27,,2013-04-17 15:02:00,
2013-04-17 09:12:00,28.0,27.0,30.04,NNE,31,1.0,9.0,94,0.00,,,0.27,,2013-04-17 15:12:00,
2013-04-17 09:22:00,28.0,27.0,30.04,NNE,31,1.0,9.0,94,0.00,,,0.27,,2013-04-17 15:22:00,
2013-04-17 09:33:00,28.0,27.0,30.03,NNE,20,0.0,7.0,94,0.00,,,0.27,,2013-04-17 15:33:00,
2013-04-17 09:42:00,28.0,27.0,30.03,NNE,20,0.0,7.0,94,0.00,,,0.27,,2013-04-17 15:42:00,
2013-04-17 09:53:00,28.0,27.0,30.03,NNE,22,3.0,7.0,94,0.00,,,0.27,,2013-04-17 15:53:00,
2013-04-17 10:03:00,28.0,26.0,30.03,NNE,17,3.0,8.0,93,0.00,,,0.27,,2013-04-17 16:03:00,
2013-04-17 10:12:00,28.0,26.0,30.03,NNE,17,3.0,8.0,93,0.00,,,0.27,,2013-04-17 16:12:00,
2013-04-17 10:22:00,28.0,26.0,30.04,NNE,19,4.0,8.0,93,0.00,,,0.27,,2013-04-17 16:22:00,
2013-04-17 10:32:00,28.0,26.0,30.04,NNE,19,4.0,8.0,93,0.00,,,0.27,,2013-04-17 16:32:00,
2013-04-17 10:42:00,28.0,26.0,30.04,NNE,19,4.0,8.0,93,0.00,,,0.27,,2013-04-17 16:42:00,
2013-04-17 10:52:00,29.0,27.0,30.03,NNE,27,3.0,8.0,92,0.00,,,0.27,,2013-04-17 16:52:00,
2013-04-17 11:02:00,29.0,27.0,30.03,NNE,27,3.0,8.0,92,0.00,,,0.27,,2013-04-17 17:02:00,
2013-04-17 11:12:00,29.0,27.0,30.03,NNE,27,3.0,8.0,92,0.00,,,0.27,,2013-04-17 17:12:00,
2013-04-17 11:22:00,29.0,27.0,30.03,NE,35,2.0,8.0,91,0.00,,,0.27,,2013-04-17 17:22:00,
2013-04-17 11:33:00,29.0,27.0,30.03,NE,35,2.0,8.0,91,0.00,,,0.27,,2013-04-17 17:33:00,
2013-04-17 11:42:00,29.0,27.0,30.03,NE,35,2.0,8.0,91,0.00,,,0.27,,2013-04-17 17:42:00,
2013-04-17 11:52:00,30.0,28.0,30.03,North,9,3.0,7.0,91,0.00,,,0.26,,2013-04-17 17:52:00,
2013-04-17 12:02:00,30.0,28.0,30.03,North,9,3.0,7.0,91,0.00,,,0.26,,2013-04-17 18:02:00,
2013-04-17 12:12:00,30.0,28.0,30.03,North,9,3.0,7.0,91,0.00,,,0.26,,2013-04-17 18:12:00,
2013-04-17 12:22:00,30.0,28.0,30.02,North,5,2.0,8.0,92,0.00,,,0.26,,2013-04-17 18:22:00,
2013-04-17 12:32:00,30.0,28.0,30.01,NNE,25,3.0,8.0,92,0.00,,,0.22,,2013-04-17 18:32:00,
2013-04-17 12:42:00,30.0,28.0,30.01,NNE,25,3.0,8.0,92,0.00,,,0.22,,2013-04-17 18:42:00,
2013-04-17 12:52:00,30.0,28.0,30.02,East,80,2.0,7.0,93,0.00,,,0.22,,2013-04-17 18:52:00,
2013-04-17 13:02:00,29.0,27.0,30.03,NNE,17,2.0,9.0,91,0.01,,,0.23,,2013-04-17 19:02:00,
2013-04-17 13:12:00,29.0,27.0,30.03,NNE,17,2.0,9.0,91,0.01,,,0.23,,2013-04-17 19:12:00,
2013-04-17 13:22:00,29.0,27.0,30.02,ENE,76,5.0,10.0,91,0.01,,,0.23,,2013-04-17 19:22:00,
2013-04-17 13:32:00,29.0,27.0,30.02,ENE,76,5.0,10.0,91,0.01,,,0.23,,2013-04-17 19:32:00,
2013-04-17 13:42:00,29.0,27.0,30.02,ENE,76,5.0,10.0,91,0.01,,,0.23,,2013-04-17 19:42:00,
2013-04-17 13:52:00,29.0,26.0,30.03,NE,37,4.0,10.0,90,0.02,,,0.20,,2013-04-17 19:52:00,
2013-04-17 14:02:00,30.0,27.0,30.03,NE,53,6.0,11.0,90,0.02,,,0.21,,2013-04-17 20:02:00,
2013-04-17 14:12:00,30.0,27.0,30.03,NE,53,6.0,11.0,90,0.02,,,0.21,,2013-04-17 20:12:00,
2013-04-17 14:22:00,29.0,26.0,30.04,North,360,3.0,11.0,89,0.03,,,0.22,,2013-04-17 20:22:00,
2013-04-17 14:32:00,30.0,27.0,30.05,NNE,13,6.0,12.0,89,0.04,,,0.20,,2013-04-17 20:32:00,
2013-04-17 14:42:00,30.0,27.0,30.05,NNE,13,6.0,12.0,89,0.04,,,0.20,,2013-04-17 20:42:00,
2013-04-17 14:52:00,30.0,27.0,30.05,NNE,13,6.0,12.0,89,0.04,,,0.20,,2013-04-17 20:52:00,
2013-04-17 15:02:00,29.0,27.0,30.06,NE,44,5.0,12.0,91,0.03,,,0.21,,2013-04-17 21:02:00,
2013-04-17 15:12:00,29.0,27.0,30.06,NE,44,5.0,12.0,91,0.03,,,0.21,,2013-04-17 21:12:00,
2013-04-17 15:22:00,29.0,27.0,30.07,NNE,26,7.0,15.0,91,0.02,,,0.21,,2013-04-17 21:22:00,
2013-04-17 15:33:00,28.0,26.0,30.07,North,355,7.0,15.0,93,0.01,,,0.17,,2013-04-17 21:33:00,
2013-04-17 15:42:00,28.0,26.0,30.07,North,355,7.0,15.0,93,0.01,,,0.17,,2013-04-17 21:42:00,
2013-04-17 15:53:00,27.0,25.0,30.08,North,360,9.0,16.0,92,0.01,,,0.17,,2013-04-17 21:53:00,
2013-04-17 16:02:00,27.0,25.0,30.09,NNE,19,7.0,22.0,92,0.00,,,0.17,,2013-04-17 22:02:00,
2013-04-17 16:12:00,27.0,25.0,30.09,NNE,19,7.0,22.0,92,0.00,,,0.17,,2013-04-17 22:12:00,
2013-04-17 16:22:00,26.0,23.0,30.09,NNW,346,15.0,24.0,90,0.00,,,0.17,,2013-04-17 22:22:00,
2013-04-17 16:33:00,25.0,23.0,30.10,NNW,338,10.0,23.0,91,0.00,,,0.13,,2013-04-17 22:33:00,
2013-04-17 16:42:00,25.0,23.0,30.10,NNW,338,10.0,23.0,91,0.00,,,0.13,,2013-04-17 22:42:00,
2013-04-17 16:53:00,25.0,23.0,30.09,North,355,14.0,23.0,91,0.00,,,0.13,,2013-04-17 22:53:00,
2013-04-17 17:02:00,24.0,22.0,30.12,NNE,14,9.0,23.0,91,0.00,,,0.13,,2013-04-17 23:02:00,
2013-04-17 17:12:00,24.0,22.0,30.12,NNE,14,9.0,23.0,91,0.00,,,0.13,,2013-04-17 23:12:00,
2013-04-17 17:22:00,24.0,22.0,30.12,NNE,19,13.0,20.0,90,0.00,,,0.13,,2013-04-17 23:22:00,
2013-04-17 17:32:00,24.0,22.0,30.14,North,5,8.0,17.0,92,0.00,,,0.10,,2013-04-17 23:32:00,
2013-04-17 17:42:00,24.0,22.0,30.14,North,5,8.0,17.0,92,0.00,,,0.10,,2013-04-17 23:42:00,
2013-04-17 17:52:00,24.0,22.0,30.16,NNE,21,9.0,19.0,90,0.00,,,0.10,,2013-04-17 23:52:00,
2013-04-17 18:02:00,23.0,20.0,30.12,NNE,14,13.0,18.0,88,0.00,,,0.10,,2013-04-18 00:02:00,
2013-04-17 18:12:00,23.0,20.0,30.12,NNE,14,13.0,18.0,88,0.00,,,0.10,,2013-04-18 00:12:00,
2013-04-17 18:22:00,23.0,20.0,30.17,NNW,348,10.0,21.0,89,0.00,,,0.10,,2013-04-18 00:22:00,
2013-04-17 18:32:00,23.0,21.0,30.18,NNE,12,11.0,19.0,90,0.00,,,0.07,,2013-04-18 00:32:00,
2013-04-17 18:42:00,23.0,21.0,30.19,NNW,348,10.0,18.0,90,0.00,,,0.07,,2013-04-18 00:42:00,
2013-04-17 18:52:00,23.0,21.0,30.19,NNW,348,10.0,18.0,90,0.00,,,0.07,,2013-04-18 00:52:00,
2013-04-17 19:02:00,23.0,21.0,30.20,NNW,348,8.0,17.0,91,0.00,,,0.07,,2013-04-18 01:02:00,
2013-04-17 19:12:00,23.0,21.0,30.21,North,11,8.0,15.0,91,0.00,,,0.07,,2013-04-18 01:12:00,
2013-04-17 19:22:00,23.0,21.0,30.21,North,11,8.0,15.0,91,0.00,,,0.07,,2013-04-18 01:22:00,
2013-04-17 19:32:00,22.0,20.0,30.19,NNE,32,7.0,17.0,90,0.00,,,0.06,,2013-04-18 01:32:00,
2013-04-17 19:42:00,22.0,20.0,30.19,NNE,32,7.0,17.0,90,0.00,,,0.06,,2013-04-18 01:42:00,
2013-04-17 19:52:00,22.0,20.0,30.23,NNW,347,8.0,14.0,90,0.00,,,0.06,,2013-04-18 01:52:00,
2013-04-17 20:02:00,22.0,20.0,30.23,NNW,347,8.0,14.0,90,0.00,,,0.06,,2013-04-18 02:02:00,
2013-04-17 20:12:00,22.0,20.0,30.23,NNW,347,8.0,14.0,90,0.00,,,0.06,,2013-04-18 02:12:00,
2013-04-17 20:22:00,22.0,20.0,30.24,North,355,7.0,13.0,91,0.00,,,0.06,,2013-04-18 02:22:00,
2013-04-17 20:32:00,22.0,20.0,30.24,NNE,26,6.0,13.0,91,0.00,,,0.06,,2013-04-18 02:32:00,
2013-04-17 20:42:00,22.0,20.0,30.24,NNE,26,6.0,13.0,91,0.00,,,0.06,,2013-04-18 02:42:00,
2013-04-17 20:52:00,22.0,20.0,30.24,NNE,26,6.0,13.0,91,0.00,,,0.06,,2013-04-18 02:52:00,
2013-04-17 21:02:00,21.0,19.0,30.25,NNW,329,7.0,17.0,91,0.00,,,0.06,,2013-04-18 03:02:00,
2013-04-17 21:12:00,21.0,19.0,30.28,North,5,8.0,18.0,91,0.00,,,0.06,,2013-04-18 03:12:00,
2013-04-17 21:22:00,21.0,19.0,30.28,North,5,8.0,18.0,91,0.00,,,0.06,,2013-04-18 03:22:00,
2013-04-17 21:33:00,21.0,19.0,30.29,NNE,20,9.0,14.0,90,0.00,,,0.06,,2013-04-18 03:33:00,
2013-04-17 21:43:00,21.0,19.0,30.29,North,9,6.0,17.0,90,0.00,,,0.06,,2013-04-18 03:43:00,
2013-04-17 21:53:00,21.0,19.0,30.29,North,9,6.0,17.0,90,0.00,,,0.06,,2013-04-18 03:53:00,
2013-04-17 22:03:00,21.0,19.0,30.31,NNE,22,1.0,9.0,90,0.00,,,0.06,,2013-04-18 04:03:00,
2013-04-17 22:13:00,21.0,19.0,30.31,NNE,22,1.0,9.0,90,0.00,,,0.06,,2013-04-18 04:13:00,
2013-04-17 22:23:00,21.0,19.0,30.30,NNW,344,5.0,9.0,90,0.00,,,0.06,,2013-04-18 04:23:00,
2013-04-17 22:33:00,21.0,19.0,30.31,NNW,334,2.0,8.0,91,0.00,,,0.06,,2013-04-18 04:33:00,
2013-04-17 22:43:00,21.0,19.0,30.31,NW,321,2.0,7.0,91,0.00,,,0.06,,2013-04-18 04:43:00,
2013-04-17 22:53:00,21.0,19.0,30.31,NW,321,2.0,7.0,91,0.00,,,0.06,,2013-04-18 04:53:00,
2013-04-17 23:02:00,21.0,18.0,30.30,NNW,333,4.0,15.0,88,0.00,,,0.06,,2013-04-18 05:02:00,
2013-04-17 23:12:00,20.0,17.0,30.30,NNE,30,6.0,13.0,88,0.00,,,0.06,,2013-04-18 05:12:00,
2013-04-17 23:22:00,20.0,17.0,30.30,NNE,30,6.0,13.0,88,0.00,,,0.06,,2013-04-18 05:22:00,
2013-04-17 23:33:00,20.0,17.0,30.30,NNW,346,2.0,8.0,89,0.00,,,0.06,,2013-04-18 05:33:00,
2013-04-17 23:42:00,21.0,18.0,30.29,NNW,333,3.0,10.0,89,0.00,,,0.06,,2013-04-18 05:42:00,
2013-04-17 23:52:00,21.0,18.0,30.29,NNW,333,3.0,10.0,89,0.00,,,0.06,,2013-04-18 05:52:00,